Lapse_Rate
0.9 1.1 1.2 1.1 1.2 1.6 1.5 1.3 1.5 1.8 2.1 3.0 3.7 4.1 4.4 4.6 4.9 5.0 5.1 6.0 6.1 6.2 6.5 6.7 6.4 5.9 5.7 5.6 5.4 5.0 4.8 4.6 4.7 4.4 4.3 4.2 4.1 4.2 4.4 4.6 4.8 5.1 5.2
2.7 2.1 1.6 1.2 1.4 1.8 2.2 2.2 1.9 2.2 2.5 3.4 3.5 4.4 4.6 4.9 5.3 5.6 5.5 5.8 6.5 6.6 6.6 6.9 7.1 7.4 7.4 6.8 6.1 5.7 5.4 5.4 5.2 5.3 5.0 4.8 4.5 4.3 4.3 4.5 4.8 5.0 5.2
4.6 3.6 2.6 1.8 2.7 3.7 3.4 3.2 3.2 3.6 3.3 4.0 3.9 4.6 5.0 5.1 5.3 5.6 5.8 5.6 5.9 6.3 7.1 6.8 7.1 7.5 7.6 7.6 7.2 6.6 6.9 6.4 5.9 5.8 5.7 5.5 5.1 4.8 4.8 4.6 4.8 4.9 5.2
5.5 4.3 3.2 2.9 4.6 4.4 4.4 3.9 3.6 3.7 3.5 3.7 3.9 4.3 4.3 5.5 6.2 6.0 5.9 5.6 5.6 5.7 6.3 5.3 6.6 7.3 7.5 7.6 7.7 7.8 7.5 6.9 7.0 6.5 6.4 6.1 5.7 5.3 5.1 5.0 4.9 4.9 5.2
5.7 4.9 3.9 4.2 5.0 4.4 4.1 4.3 4.4 4.4 4.5 4.7 5.3 5.9 6.0 6.0 5.8 6.4 6.1 6.1 5.9 5.7 5.8 6.2 6.5 6.6 6.9 7.1 7.2 7.5 7.5 7.5 7.0 6.7 6.7 6.7 6.5 6.2 5.6 5.5 5.4 5.1 5.3
6.0 5.3 4.8 4.8 4.9 4.1 4.5 5.5 6.2 5.8 5.8 5.9 6.4 6.4 6.2 5.3 4.6 4.0 4.1 5.2 5.1 5.5 5.9 5.7 5.6 5.7 6.8 6.5 6.6 6.9 7.1 7.2 7.4 7.2 6.7 6.3 6.8 6.7 6.6 6.3 6.0 5.8 5.8
6.0 5.3 4.6 4.5 4.7 5.8 6.4 6.4 6.6 6.4 6.0 5.5 5.6 5.4 4.0 4.0 3.8 3.4 3.5 3.1 3.8 5.1 4.6 4.6 4.5 4.8 5.0 5.1 5.2 5.9 6.6 6.9 6.7 6.8 6.9 6.8 6.6 6.8 6.9 7.1 6.8 6.4 6.3
6.0 5.6 4.6 4.3 4.7 5.7 6.6 6.6 6.3 6.0 5.5 5.3 6.0 5.3 4.8 4.3 3.9 3.2 3.0 3.0 3.2 4.3 4.0 4.5 4.5 4.1 3.9 3.6 3.5 3.7 4.5 5.4 5.7 6.1 6.3 6.6 6.8 6.6 6.7 6.9 6.8 6.8 6.4
6.2 6.0 5.4 5.2 5.3 5.4 5.6 5.7 5.9 6.3 5.9 5.2 5.1 5.6 5.7 4.6 4.0 4.4 4.3 3.9 4.0 3.8 4.2 3.9 3.8 3.7 3.3 3.1 2.7 2.8 3.5 4.5 5.3 5.9 6.2 6.3 6.5 6.8 7.3 7.2 6.7 6.8 7.1
4.2 4.5 4.5 4.6 4.3 4.1 4.5 4.0 3.7 4.0 3.8 4.0 3.7 4.0 3.6 4.6 5.9 5.5 4.2 4.2 3.8 4.0 3.5 3.5 3.4 2.9 2.6 2.1 2.3 3.0 3.6 4.5 5.1 5.8 6.6 7.0 7.1 7.5 7.2 6.8 6.9 6.6 6.9
1.5 2.1 2.1 2.5 2.4 2.4 3.0 2.5 2.1 1.8 1.7 2.3 2.6 2.4 2.6 3.0 3.9 4.6 6.3 5.0 3.6 3.0 3.1 2.9 2.6 1.9 1.9 1.7 1.8 2.6 3.5 4.7 5.3 6.0 6.7 6.9 6.9 6.5 7.2 6.8 6.7 6.7 6.5
1.0 1.0 1.1 0.7 0.7 0.7 1.1 0.7 0.5 0.9 1.2 1.3 1.8 2.0 2.5 3.4 3.6 3.9 4.5 4.6 4.7 4.0 3.2 3.3 2.7 1.3 1.4 1.6 2.1 2.7 3.5 4.2 5.0 5.7 6.2 6.2 5.8 5.9 6.1 5.9 6.4 6.8 6.8
0.6 0.4 0.3 0.1 -0.1 -0.1 -0.2 -0.3 0.4 0.2 0.7 1.2 1.6 1.9 2.3 2.7 3.5 4.0 5.7 5.5 5.3 4.4 3.3 1.9 2.0 1.8 1.8 1.3 1.5 2.3 2.9 3.5 4.3 4.9 5.2 5.4 5.1 4.7 4.9 5.3 6.0 6.5 6.7
0.2 -0.1 -0.4 -0.2 -0.4 0.1 -0.2 -0.5 -0.3 -0.1 0.4 0.7 1.2 1.7 2.5 3.1 3.4 4.3 5.3 5.8 5.2 4.4 4.3 2.9 0.6 1.3 1.0 0.9 1.5 1.5 2.4 3.7 4.3 4.5 4.8 4.9 4.9 5.0 4.4 4.8 5.9 6.4 6.1
0.8 1.1 -0.6 -0.6 -1.3 -0.9 -0.5 -0.7 -0.3 0.0 0.7 1.1 1.6 2.3 2.8 2.7 3.1 3.8 4.8 5.4 6.2 5.7 5.0 2.9 1.5 0.4 0.6 1.1 1.2 1.3 1.7 3.6 4.5 4.2 4.4 4.6 4.5 5.7 5.9 6.5 6.7 6.7 6.2
-0.2 0.0 0.3 -0.3 -1.0 -1.0 -0.6 0.1 -0.1 0.1 0.7 1.2 1.4 2.0 2.5 2.9 3.5 4.0 4.2 4.6 4.8 5.4 5.6 3.0 1.1 0.9 1.0 1.5 1.5 1.2 2.0 2.2 3.4 3.5 4.0 4.2 4.9 6.0 5.8 5.7 5.8 6.3 6.1
-0.3 -0.5 0.7 0.8 0.3 -0.2 -0.4 -0.4 -0.2 0.6 1.3 1.4 1.5 1.8 2.5 3.6 4.6 4.2 3.5 3.5 3.1 2.9 5.1 1.1 1.0 0.9 0.8 1.2 1.1 2.1 2.2 2.1 2.2 3.0 3.8 4.4 4.8 5.8 6.0 5.9 5.7 5.6 5.4
0.2 0.3 0.4 0.6 -0.0 -0.4 -0.5 0.2 0.9 1.7 1.6 2.1 2.5 2.6 2.9 4.2 4.5 4.1 3.9 3.4 2.8 2.1 3.4 2.7 1.4 0.8 0.5 0.4 1.1 2.5 2.4 2.2 2.0 2.4 3.6 3.9 4.5 5.1 5.6 5.3 5.0 5.0 4.7
-0.4 0.0 0.5 0.5 -0.3 -0.5 -0.4 -0.2 0.4 1.1 1.2 1.5 2.0 3.1 2.9 3.6 3.5 3.2 3.3 3.1 2.7 2.3 2.0 2.2 0.8 0.7 0.4 1.1 2.0 1.7 2.3 0.8 1.7 2.6 3.3 3.6 4.2 4.4 4.4 4.6 4.4 4.1 3.8
-0.7 -0.5 -0.6 -0.9 -0.6 -0.3 -0.2 -0.2 0.2 0.6 0.4 0.5 1.1 1.2 1.8 2.2 2.5 2.8 3.0 3.0 2.5 1.7 2.1 2.3 2.1 1.7 2.0 1.8 1.3 0.5 1.5 -0.3 0.1 1.7 2.6 3.1 3.4 3.9 4.4 4.2 3.6 3.4 3.1
-0.9 -1.1 -1.2 -0.9 -0.6 -0.1 0.7 0.8 1.4 1.4 1.9 1.9 2.0 2.0 2.0 2.6 3.1 2.8 2.3 2.1 2.3 1.7 1.3 1.6 2.0 2.4 3.0 1.9 0.8 -0.1 0.4 -0.4 0.1 -0.7 0.4 0.4 0.7 1.0 1.8 3.2 2.9 3.2 3.0
-1.5 -1.3 -0.9 -0.3 0.3 1.9 2.8 2.9 3.0 2.6 2.6 2.6 2.3 2.1 1.9 1.9 2.7 3.1 2.7 2.4 2.2 1.9 1.6 1.5 1.5 2.5 1.0 0.4 -0.2 0.0 -0.2 -1.6 0.4 -0.4 0.2 0.4 0.0 -0.5 0.5 2.2 3.5 3.1 2.7
-1.6 -1.1 -0.7 0.3 1.3 3.3 5.4 5.7 5.4 2.8 2.9 2.7 2.2 1.8 2.2 1.4 0.6 0.3 2.2 1.5 2.4 2.8 1.8 1.0 0.8 0.9 0.6 0.3 -0.3 -0.5 -0.3 -1.0 0.5 -0.1 0.0 0.5 -0.9 0.4 1.0 2.3 3.5 3.7 3.2
-1.5 -1.2 -0.4 0.8 2.2 4.1 5.4 5.4 5.1 2.1 1.9 1.3 1.4 1.3 -1.2 -1.2 -0.4 -0.1 0.2 -1.0 -0.4 -0.3 -0.1 0.7 -0.1 -0.1 -0.1 -0.1 0.7 0.3 0.1 0.2 -0.1 0.0 -0.6 -1.0 -0.9 0.6 0.1 1.4 3.1 4.0 3.3
-1.1 -0.7 0.5 1.7 3.5 3.6 5.0 4.7 2.6 0.9 2.1 1.7 1.2 0.5 0.4 0.1 1.6 2.8 0.3 0.4 0.7 0.2 2.1 1.7 1.7 2.2 2.6 2.4 1.6 -0.0 -0.6 -0.8 0.3 0.6 -0.7 0.2 -0.6 -0.2 -0.4 -0.3 1.6 3.2 3.3
-0.5 0.1 0.3 2.4 3.7 2.6 4.5 4.6 2.1 0.5 1.0 0.2 0.1 0.6 2.7 0.7 3.1 3.3 0.6 0.2 0.7 0.6 0.5 0.6 0.5 1.3 1.0 2.1 2.8 0.7 -0.6 -1.4 -0.8 -1.1 -0.4 -0.6 -0.3 -0.8 -1.2 0.0 0.6 1.0 1.5
Wind_Speed
7 10 9 11 12 11 10 8 8 8 9 9 9 9 7 8 8 8 8 11 12 10 8 8 9 11 10 9 7 7 6 5 5 4 3 2 1 2 3 3 3 4 5
12 10 8 9 10 13 13 11 9 7 6 6 7 8 9 9 10 10 10 10 15 14 12 11 11 12 12 11 12 11 10 9 8 7 6 5 3 2 2 2 2 3 3
13 11 7 5 11 14 12 10 7 5 3 3 4 5 6 8 9 12 14 14 13 17 16 15 13 13 12 12 13 14 15 15 12 10 9 8 6 5 5 4 4 4 5
17 10 5 5 11 9 8 4 2 2 3 3 3 4 4 7 8 9 11 12 12 14 17 16 16 15 13 12 13 14 14 13 15 15 13 11 10 9 8 7 7 6 6
18 12 7 8 8 6 4 3 3 3 3 3 4 4 4 4 5 6 7 8 11 12 12 16 19 16 11 10 11 12 13 13 11 14 17 15 14 12 11 10 10 10 10
16 12 8 8 9 4 4 3 5 4 4 4 3 4 4 4 5 4 6 11 9 10 10 7 9 8 8 8 7 10 12 11 10 8 13 18 18 16 16 15 14 14 13
16 12 7 6 7 4 5 5 3 4 3 3 1 3 3 5 6 5 5 4 5 7 6 8 7 5 3 4 2 3 5 7 9 9 9 10 17 20 19 17 17 16 16
13 12 7 5 5 4 5 4 3 2 3 2 2 2 3 4 3 3 3 3 2 4 6 7 7 8 9 9 9 9 7 7 8 8 8 8 7 11 20 21 20 21 20
12 11 10 6 4 3 2 1 0 2 3 1 1 2 3 3 2 2 2 2 1 1 1 7 9 10 10 9 7 9 8 7 8 7 7 7 7 6 8 9 17 26 25
7 9 9 7 4 2 1 1 1 1 2 3 2 1 3 3 3 3 2 1 2 1 1 0 4 9 11 11 10 10 9 9 8 8 8 8 8 9 6 7 6 9 14
4 7 8 6 5 3 3 3 2 1 2 2 3 1 1 1 3 4 4 3 2 1 1 3 5 7 8 10 11 10 10 9 8 8 9 10 11 12 10 10 9 10 11
2 1 2 4 5 3 2 1 2 2 3 3 3 3 3 3 2 1 2 4 3 1 2 3 4 6 9 10 11 10 11 10 10 10 10 12 13 13 10 9 10 11 11
2 3 1 2 2 2 4 5 3 3 3 3 4 4 3 4 3 3 3 3 3 2 2 3 3 6 6 10 10 10 10 10 10 10 11 12 13 11 9 8 8 8 9
6 9 6 6 4 4 3 2 1 2 4 4 6 4 3 3 3 3 4 4 3 4 3 3 2 5 5 8 8 7 9 9 9 9 9 10 14 16 7 6 5 2 6
2 4 2 5 5 5 2 2 2 3 3 4 4 4 3 2 2 3 3 3 4 3 4 3 2 2 7 6 7 6 7 7 8 8 8 9 12 15 19 15 12 12 10
5 4 2 1 4 3 2 2 2 3 3 3 2 3 3 2 2 2 2 2 2 2 3 1 1 2 6 6 7 6 6 7 6 6 7 8 11 10 13 16 17 17 18
6 6 4 3 3 3 1 1 3 3 4 4 3 4 5 2 3 1 1 0 0 0 2 2 2 3 2 3 5 4 6 5 4 7 8 6 7 10 11 11 12 13 14
4 5 4 4 2 3 1 1 3 3 4 5 5 4 4 1 0 2 1 1 2 2 1 3 2 2 2 1 2 3 4 3 3 2 3 5 4 5 5 8 11 12 11
5 5 4 4 3 2 3 1 1 1 1 1 1 3 1 2 1 0 1 2 2 2 2 2 2 1 1 1 2 3 1 3 3 4 3 4 3 4 5 5 8 9 10
6 5 4 4 4 2 2 1 2 2 3 3 3 3 2 2 2 2 1 1 2 2 1 1 2 1 2 1 2 2 1 3 2 5 5 5 5 4 5 5 8 8 8
4 5 5 4 4 3 2 1 2 4 3 3 3 3 2 3 4 3 1 1 2 2 2 1 1 1 1 2 2 2 2 1 1 2 2 3 4 4 5 4 4 5 5
5 5 5 4 4 3 5 5 5 3 4 4 4 3 3 5 5 6 6 4 1 3 3 2 2 2 2 1 1 2 2 2 1 1 1 2 3 2 2 2 2 4 4
4 4 4 4 4 3 6 7 6 3 4 4 4 4 3 3 5 4 6 8 5 5 2 2 3 2 3 4 4 2 2 2 2 1 1 1 2 2 2 4 2 2 2
5 4 4 5 4 3 6 5 7 4 3 3 3 3 3 3 3 4 2 5 2 3 3 2 3 3 2 4 2 3 3 2 1 0 1 1 2 1 4 5 3 1 2
3 4 3 5 5 4 7 7 6 4 3 3 3 4 5 5 6 6 5 4 2 2 4 6 6 6 5 5 5 3 1 2 1 1 2 1 1 2 1 2 3 3 3
4 3 3 3 7 4 8 8 5 2 4 4 4 4 10 6 7 7 5 4 4 3 3 2 2 3 4 1 3 2 3 2 2 1 1 2 1 2 2 1 3 5 4
Wind_Direction
182 186 203 202 205 205 212 217 220 229 247 243 243 242 246 248 252 250 244 234 227 229 222 226 222 223 223 225 225 217 212 207 201 202 192 179 153 118 99 102 105 105 97
184 192 198 211 216 210 216 220 223 225 240 230 247 239 247 255 254 255 247 240 230 230 228 227 234 246 246 240 230 228 225 223 218 216 212 208 197 189 177 164 156 131 124
190 183 186 201 216 221 217 220 220 213 216 221 251 252 251 258 260 253 248 241 239 236 235 231 229 239 252 259 251 244 238 227 224 224 220 216 211 210 208 193 178 166 157
194 191 185 198 210 202 203 201 191 215 250 251 273 274 272 265 259 261 253 249 241 241 245 246 234 233 236 259 272 277 272 256 231 226 220 216 216 215 215 207 200 195 185
192 189 189 206 202 199 204 203 217 199 227 252 246 252 259 265 273 277 279 263 256 251 250 252 240 242 247 255 270 285 296 303 265 242 228 223 216 217 218 216 211 206 201
193 188 193 201 193 186 208 206 211 210 230 243 263 267 257 267 274 265 259 259 250 250 252 243 220 229 246 254 268 286 291 300 309 281 250 232 223 219 218 216 216 213 212
194 190 194 198 201 202 208 207 202 220 242 229 249 280 292 272 275 265 278 293 279 250 199 171 161 159 154 83 54 357 319 329 1 358 338 280 237 226 224 224 222 220 217
192 186 187 201 203 213 214 201 191 220 243 222 255 310 305 318 288 305 304 295 204 134 142 151 137 144 136 114 91 76 60 26 8 358 347 339 337 266 240 235 228 223 219
186 189 187 189 186 152 182 168 156 239 266 310 0 211 288 255 308 324 3 33 100 64 93 136 142 139 126 115 87 61 50 42 18 1 356 351 344 329 307 288 255 243 227
165 166 151 153 155 121 145 128 99 183 165 258 318 237 240 224 262 291 334 5 32 119 144 164 122 116 119 101 89 80 63 52 42 20 0 349 341 342 358 360 351 323 285
180 157 141 127 127 132 139 139 126 168 181 210 205 282 273 266 244 237 276 289 318 203 160 116 112 98 102 102 90 72 64 56 43 29 5 354 337 331 335 331 315 306 324
223 226 102 139 130 129 126 101 139 180 225 224 218 215 206 213 231 204 253 252 242 8 71 83 102 106 105 97 90 82 73 55 44 26 13 358 340 322 309 305 296 292 284
188 191 172 159 118 179 161 162 211 216 231 221 217 224 225 229 214 218 214 237 241 229 111 64 83 98 100 106 93 88 73 57 45 28 6 359 351 331 303 295 298 300 295
166 169 163 162 155 204 204 167 219 255 245 249 244 231 239 241 232 230 224 224 221 231 181 142 85 95 93 103 98 91 75 67 48 31 10 4 9 17 306 290 296 24 15
53 332 148 124 157 171 196 196 237 256 258 268 250 241 239 259 256 271 269 228 233 214 215 150 155 124 116 111 98 88 79 56 48 33 24 12 14 27 34 58 58 56 52
119 85 352 203 159 159 168 217 251 252 242 256 248 262 259 256 253 253 272 274 255 252 220 112 94 130 127 110 89 86 82 55 28 19 15 14 24 33 46 49 52 55 54
126 135 183 207 198 157 170 249 266 244 245 256 262 248 251 235 241 216 258 86 179 55 202 104 105 112 87 126 108 101 81 65 16 7 350 4 9 18 41 50 51 51 54
141 141 166 192 177 132 86 343 288 258 249 242 247 241 250 235 89 348 300 73 68 30 54 138 111 142 118 98 130 99 77 70 54 28 338 352 345 4 42 46 48 47 48
127 149 169 184 159 137 137 92 341 225 52 50 69 166 246 161 146 205 113 145 110 65 57 140 142 119 111 154 98 55 49 46 36 10 33 34 38 52 42 47 55 52 49
157 170 167 157 150 159 134 111 109 126 109 90 77 70 58 110 159 156 117 112 94 121 124 132 90 117 132 142 108 127 134 49 36 9 349 31 48 43 52 79 72 55 44
159 161 153 167 171 175 188 186 245 197 170 158 124 105 97 103 118 107 114 98 124 138 118 126 111 99 166 145 173 142 144 78 11 40 314 340 355 23 45 85 55 31 10
155 161 182 193 203 226 191 208 227 225 181 164 138 112 82 78 86 106 108 92 169 186 173 160 157 164 175 142 118 141 113 102 229 349 9 319 13 360 3 332 7 8 18
163 187 201 201 218 214 216 229 218 188 168 159 151 158 136 76 79 48 96 69 54 73 92 157 152 182 164 180 143 136 147 146 193 266 130 304 12 347 333 331 305 14 54
192 193 205 208 198 216 215 196 153 127 124 128 142 172 150 162 158 144 122 105 94 70 51 71 109 139 118 141 152 169 153 146 83 300 101 122 5 293 327 319 270 159 64
199 209 199 200 191 214 189 189 147 137 148 162 187 187 177 178 199 173 156 151 175 96 102 106 114 112 128 148 160 107 104 90 262 220 19 97 5 305 322 314 331 8 3
207 199 222 192 202 190 208 205 168 156 171 179 189 217 209 188 195 177 171 158 189 198 147 87 59 77 71 97 170 188 145 141 179 358 255 102 12 12 356 303 326 359 358